EN

Hourly Weather Abbeville

Today, 1 December, Tuesday

Time Temperature Precipitation Wind Pressure Humidity
00:00 +7°C° 0.3 mm 8 mps 761 mmHg 81%
01:00 +6°C° 0 mm 7 mps 762 mmHg 81%
02:00 +5°C° 0 mm 7 mps 762 mmHg 81%
03:00 +4°C° 0 mm 7 mps 762 mmHg 81%
04:00 +5°C° 0 mm 7 mps 762 mmHg 80%
05:00 +5°C° 0 mm 7 mps 763 mmHg 80%
06:00 +5°C° 0 mm 8 mps 763 mmHg 79%
07:00 +5°C° 0 mm 8 mps 763 mmHg 78%
08:00 +5°C° 0 mm 8 mps 763 mmHg 78%
09:00 +5°C° 0 mm 8 mps 763 mmHg 77%
10:00 +6°C° 0.1 mm 8 mps 763 mmHg 75%
11:00 +7°C° 0.1 mm 8 mps 763 mmHg 74%
12:00 +7°C° 0.1 mm 8 mps 764 mmHg 72%
13:00 +7°C° 0.1 mm 8 mps 763 mmHg 73%
14:00 +8°C° 0.1 mm 7 mps 763 mmHg 73%
15:00 +6°C° 0.1 mm 7 mps 763 mmHg 74%
16:00 +6°C° 0.1 mm 7 mps 763 mmHg 75%
17:00 +5°C° 0.1 mm 6 mps 764 mmHg 77%
18:00 +5°C° 0.1 mm 6 mps 764 mmHg 79%
19:00 +5°C° 0 mm 6 mps 764 mmHg 79%
20:00 +5°C° 0 mm 6 mps 763 mmHg 79%
21:00 +6°C° 0 mm 5 mps 763 mmHg 79%
22:00 +5°C° 0 mm 6 mps 763 mmHg 80%
23:00 +5°C° 0 mm 6 mps 763 mmHg 81%

Tomorrow, 2 December, Wednesday

Time Temperature Precipitation Wind Pressure Humidity
00:00 +5°C° 0 mm 6 mps 763 mmHg 82%
01:00 +6°C° 0.1 mm 5 mps 763 mmHg 85%
02:00 +6°C° 0.1 mm 5 mps 763 mmHg 88%
03:00 +6°C° 0.1 mm 5 mps 762 mmHg 92%
04:00 +6°C° 0 mm 4 mps 762 mmHg 91%
05:00 +7°C° 0 mm 3 mps 762 mmHg 91%
06:00 +6°C° 0 mm 2 mps 762 mmHg 90%
07:00 +7°C° 0 mm 2 mps 762 mmHg 89%
08:00 +7°C° 0 mm 2 mps 762 mmHg 88%
09:00 +7°C° 0 mm 2 mps 762 mmHg 86%
10:00 +8°C° 0 mm 1 mps 761 mmHg 82%
11:00 +9°C° 0 mm 1 mps 761 mmHg 78%
12:00 +9°C° 0 mm 1 mps 761 mmHg 74%
13:00 +9°C° 0 mm 1 mps 760 mmHg 76%
14:00 +9°C° 0 mm 1 mps 760 mmHg 79%
15:00 +9°C° 0 mm 1 mps 759 mmHg 81%
16:00 +9°C° 0 mm 1 mps 759 mmHg 84%
17:00 +7°C° 0 mm 2 mps 759 mmHg 86%
18:00 +7°C° 0 mm 2 mps 758 mmHg 89%
19:00 +7°C° 0 mm 2 mps 758 mmHg 88%
20:00 +6°C° 0 mm 2 mps 758 mmHg 86%
21:00 +6°C° 0 mm 2 mps 757 mmHg 85%
22:00 +5°C° 0 mm 3 mps 757 mmHg 85%
23:00 +5°C° 0 mm 3 mps 756 mmHg 85%

Day after tomorrow, 3 December, Thursday

Time Temperature Precipitation Wind Pressure Humidity
00:00 +5°C° 0 mm 3 mps 756 mmHg 85%
01:00 +5°C° 0.3 mm 4 mps 755 mmHg 87%
02:00 +5°C° 0.3 mm 4 mps 754 mmHg 89%
03:00 +6°C° 0.3 mm 4 mps 753 mmHg 91%
04:00 +5°C° 0.2 mm 4 mps 753 mmHg 87%
05:00 +5°C° 0.2 mm 3 mps 752 mmHg 82%
06:00 +5°C° 0.2 mm 3 mps 751 mmHg 78%
07:00 +5°C° 0 mm 3 mps 751 mmHg 79%
08:00 +5°C° 0 mm 3 mps 750 mmHg 79%
09:00 +5°C° 0 mm 3 mps 749 mmHg 80%
10:00 +5°C° 0.1 mm 4 mps 748 mmHg 80%
11:00 +6°C° 0.1 mm 5 mps 748 mmHg 80%
12:00 +5°C° 0.1 mm 6 mps 747 mmHg 79%
13:00 +5°C° 0.3 mm 6 mps 746 mmHg 82%
14:00 +4°C° 0.3 mm 6 mps 745 mmHg 84%
15:00 +4°C° 0.3 mm 6 mps 744 mmHg 87%
16:00 +4°C° 0.1 mm 6 mps 743 mmHg 87%
17:00 +4°C° 0.1 mm 6 mps 742 mmHg 87%
18:00 +5°C° 0.1 mm 5 mps 741 mmHg 87%
19:00 +5°C° 0.1 mm 5 mps 741 mmHg 88%
20:00 +5°C° 0.1 mm 5 mps 740 mmHg 88%
21:00 +5°C° 0.1 mm 5 mps 739 mmHg 89%
22:00 +4°C° 0.1 mm 4 mps 738 mmHg 90%
23:00 +4°C° 0.1 mm 4 mps 737 mmHg 91%

4 December, Friday

Time Temperature Precipitation Wind Pressure Humidity
00:00 +4°C° 0.1 mm 3 mps 736 mmHg 92%
01:00 +4°C° 0.3 mm 3 mps 736 mmHg 93%
02:00 +4°C° 0.3 mm 4 mps 735 mmHg 93%
03:00 +4°C° 0.3 mm 4 mps 734 mmHg 93%
04:00 +4°C° 1 mm 4 mps 734 mmHg 94%
05:00 +4°C° 1 mm 4 mps 733 mmHg 94%
06:00 +4°C° 1 mm 3 mps 733 mmHg 94%
07:00 +4°C° 1.4 mm 3 mps 733 mmHg 94%
08:00 +4°C° 1.4 mm 3 mps 733 mmHg 94%
09:00 +5°C° 1.4 mm 2 mps 733 mmHg 93%
10:00 +4°C° 0.2 mm 3 mps 733 mmHg 92%
11:00 +5°C° 0.2 mm 3 mps 733 mmHg 91%
12:00 +5°C° 0.2 mm 4 mps 733 mmHg 90%
13:00 +5°C° 0.2 mm 4 mps 733 mmHg 90%
14:00 +5°C° 0.2 mm 5 mps 734 mmHg 90%
15:00 +5°C° 0.2 mm 5 mps 734 mmHg 90%
16:00 +3°C° 0.2 mm 6 mps 734 mmHg 91%
17:00 +3°C° 0.2 mm 6 mps 734 mmHg 91%
18:00 +3°C° 0.2 mm 7 mps 735 mmHg 92%
19:00 +3°C° 0.2 mm 7 mps 735 mmHg 92%
20:00 +2°C° 0.2 mm 7 mps 735 mmHg 92%
21:00 +2°C° 0.2 mm 7 mps 736 mmHg 92%
22:00 +2°C° 0.2 mm 7 mps 736 mmHg 92%
23:00 +2°C° 0.2 mm 7 mps 736 mmHg 92%

5 December, Saturday

Time Temperature Precipitation Wind Pressure Humidity
00:00 +2°C° 0.2 mm 6 mps 736 mmHg 92%
01:00 +2°C° 0.1 mm 6 mps 737 mmHg 92%
02:00 +2°C° 0.1 mm 6 mps 737 mmHg 92%
03:00 +2°C° 0.1 mm 6 mps 737 mmHg 92%
04:00 +2°C° 0.1 mm 6 mps 737 mmHg 91%
05:00 +1°C° 0.1 mm 6 mps 738 mmHg 90%
06:00 +1°C° 0.1 mm 6 mps 738 mmHg 89%
07:00 0°C° 0.1 mm 7 mps 738 mmHg 89%
08:00 0°C° 0.1 mm 7 mps 739 mmHg 89%
09:00 0°C° 0.1 mm 7 mps 739 mmHg 89%
10:00 0°C° 0.1 mm 7 mps 740 mmHg 88%
11:00 +1°C° 0.1 mm 6 mps 740 mmHg 88%
12:00 +2°C° 0.1 mm 6 mps 740 mmHg 88%
13:00 +2°C° 0 mm 5 mps 740 mmHg 86%
14:00 +2°C° 0 mm 5 mps 741 mmHg 85%
15:00 +3°C° 0 mm 4 mps 741 mmHg 84%
16:00 +3°C° 0 mm 4 mps 742 mmHg 85%
17:00 +3°C° 0 mm 4 mps 742 mmHg 85%
18:00 +3°C° 0 mm 3 mps 743 mmHg 86%
19:00 +2°C° 0 mm 3 mps 743 mmHg 88%
20:00 +2°C° 0 mm 3 mps 744 mmHg 89%
21:00 +1°C° 0 mm 3 mps 744 mmHg 91%
22:00 +2°C° 0 mm 2 mps 745 mmHg 91%
23:00 +2°C° 0 mm 2 mps 745 mmHg 91%

6 December, Sunday

Time Temperature Precipitation Wind Pressure Humidity
00:00 +3°C° 0 mm 1 mps 745 mmHg 91%
01:00 +3°C° 0 mm 1 mps 746 mmHg 91%
02:00 +3°C° 0 mm 1 mps 746 mmHg 91%
03:00 +3°C° 0 mm 1 mps 746 mmHg 91%
04:00 +2°C° 0 mm 0 mps 746 mmHg 91%
05:00 +1°C° 0 mm 0 mps 747 mmHg 91%
06:00 +1°C° 0 mm 0 mps 747 mmHg 91%
07:00 +3°C° 0 mm 1 mps 747 mmHg 90%
08:00 +3°C° 0 mm 1 mps 747 mmHg 88%
09:00 +4°C° 0 mm 1 mps 747 mmHg 87%
10:00 +3°C° 0 mm 2 mps 747 mmHg 85%
11:00 +3°C° 0 mm 3 mps 747 mmHg 83%
12:00 +4°C° 0 mm 3 mps 747 mmHg 81%
13:00 +4°C° 0.5 mm 3 mps 747 mmHg 85%
14:00 +4°C° 0.5 mm 3 mps 747 mmHg 88%
15:00 +4°C° 0.5 mm 3 mps 747 mmHg 91%
16:00 +4°C° 0.2 mm 3 mps 747 mmHg 91%
17:00 +4°C° 0.2 mm 3 mps 748 mmHg 90%
18:00 +4°C° 0.2 mm 3 mps 748 mmHg 90%
19:00 +4°C° 0.2 mm 3 mps 748 mmHg 90%
20:00 +4°C° 0.2 mm 3 mps 748 mmHg 89%
21:00 +4°C° 0.2 mm 3 mps 748 mmHg 89%
22:00 +4°C° 0.1 mm 3 mps 749 mmHg 88%
23:00 +4°C° 0.1 mm 3 mps 749 mmHg 87%
Show more